This demonstration page uses our WeatherBlox Daily Observations layout. Learn more.

36.17497, -115.13722

Hourly Observations for November 24, 2018

Temp ( °F °C ) Dew Point ( °F °C ) Humidity (%) Winds ( mph kmh ) Pressure ( in mb ) Visibility ( mi km ) Precip ( " mm )
12:53 am 00:53 Clear 48 8.9 30 -1.1 50 50 N 5 7 29.94 1014 10 16.09344 0 0
1:53 am 01:53 Clear 47 8.3 31 -0.6 54 54 NW 6 9 29.94 1014 10 16.09344 0 0
2:53 am 02:53 Clear 46 7.8 31 -0.6 56 56 WNW 7 11 29.94 1014 10 16.09344 0 0
3:53 am 03:53 Clear 46 7.8 30 -1.1 54 54 Calm 29.94 1014 10 16.09344 0 0
4:53 am 04:53 Clear 44 6.7 30 -1.1 58 58 W 7 11 29.94 1014 10 16.09344 0 0
5:53 am 05:53 Clear 43 6.1 31 -0.6 63 63 NNW 5 7 29.94 1014 10 16.09344 0 0
6:53 am 06:53 Sunny 43 6.1 32 0 65 65 NNW 3 6 29.94 1014 10 16.09344 0 0
7:53 am 07:53 Sunny 50 10 31 -0.6 48 48 NNW 7 11 29.97 1015 10 16.09344 0 0
8:53 am 08:53 Sunny 54 12.2 30 -1.1 40 40 NNW 5 7 29.97 1015 10 16.09344 0 0
9:53 am 09:53 Sunny 57 13.9 31 -0.6 37 37 NNW 3 6 29.97 1015 10 16.09344 0 0
10:53 am 10:53 Sunny 59 15 31 -0.6 35 35 Calm 29.94 1014 10 16.09344 0 0
11:53 am 11:53 Sunny 61 16.1 32 0 34 34 SSW 6 9 29.88 1012 10 16.09344 0 0
12:53 pm 12:53 Sunny 63 17.2 34 1.1 34 34 SSW 6 9 29.85 1011 10 16.09344 0 0
1:53 pm 13:53 Sunny 64 17.8 36 2.2 35 35 Calm 29.85 1011 10 16.09344 0 0
2:53 pm 14:53 Sunny 66 18.9 38 3.3 36 36 ESE 6 9 29.85 1011 10 16.09344 0 0
3:53 pm 15:53 Sunny 64 17.8 37 2.8 37 37 E 8 13 29.85 1011 10 16.09344 0 0
4:53 pm 16:53 Clear 61 16.1 36 2.2 39 39 E 5 7 29.88 1012 10 16.09344 0 0
5:53 pm 17:53 Clear 59 15 37 2.8 44 44 Calm 29.91 1013 10 16.09344 0 0
6:53 pm 18:53 Clear 57 13.9 34 1.1 42 42 E 10 17 29.97 1015 10 16.09344 0 0
7:53 pm 19:53 Clear 56 13.3 33 0.6 42 42 SSE 8 13 30 1016 10 16.09344 0 0
8:53 pm 20:53 Clear 56 13.3 33 0.6 42 42 SE 8 13 30 1016 10 16.09344 0 0
9:53 pm 21:53 Clear 54 12.2 30 -1.1 40 40 SW 6 9 30.03 1017 10 16.09344 0 0
10:53 pm 22:53 Clear 51 10.6 30 -1.1 44 44 Calm 30.06 1018 10 16.09344 0 0
11:53 pm 23:53 Clear 50 10 30 -1.1 46 46 Calm 30.09 1019 10 16.09344 0 0

Powered by AerisWeather